Wind_Speed
5 5 6 7 8 10 11 12 13 13 14 15 16 17 18 16 14 14 15 17 17 17 16 15 15 15 15 14 12 11 11 11 10 10 10 10 10 9 7 6 5 5 6
4 4 5 6 7 9 10 11 11 11 12 13 14 16 17 16 14 13 14 16 17 17 16 15 14 14 14 14 13 10 9 9 9 9 10 10 10 10 9 7 5 4 3
4 4 5 5 7 8 10 10 10 9 10 12 13 15 16 16 14 12 13 16 17 17 16 15 14 14 14 14 14 11 9 7 7 8 8 9 9 9 9 9 8 6 4
5 5 6 6 7 7 8 9 8 7 8 10 12 13 15 15 14 12 12 14 15 16 17 17 16 16 15 15 15 14 11 8 6 6 6 6 6 6 7 7 8 8 6
7 8 8 8 8 8 8 8 8 8 8 9 11 12 13 14 14 13 12 13 14 15 16 17 18 18 17 17 17 16 14 10 7 6 6 5 4 4 4 5 5 6 6
8 9 10 10 10 10 10 10 10 10 11 11 12 13 14 14 14 13 13 13 13 14 15 16 18 19 19 18 17 17 16 14 9 7 7 7 5 4 4 3 3 4 4
9 10 10 11 11 12 12 13 13 13 13 14 14 14 14 14 14 15 15 15 14 14 15 16 17 18 18 18 18 17 17 16 13 9 7 8 7 6 5 5 4 4 3
10 11 11 12 12 13 13 14 14 14 14 14 14 14 14 15 15 15 16 16 16 16 17 17 18 18 18 18 18 17 17 17 16 13 9 9 9 8 8 7 7 6 5
10 11 12 12 12 13 13 13 13 13 13 13 13 13 13 13 14 15 16 16 17 17 17 17 18 19 19 19 18 17 16 16 16 15 13 10 10 10 10 9 8 8 8
12 13 13 13 13 12 12 12 12 12 13 14 13 13 13 13 13 14 15 15 15 15 16 16 16 17 19 20 20 19 17 16 15 15 14 13 11 10 11 11 11 10 9
11 12 13 13 13 13 13 13 14 14 15 16 16 16 16 16 16 16 16 15 15 16 16 17 16 17 17 18 20 21 20 17 16 15 14 14 13 12 10 11 12 13 13
11 13 15 16 16 16 17 18 19 19 19 20 21 20 20 20 20 21 20 19 18 17 17 17 17 16 17 17 18 20 20 20 18 17 16 15 15 14 12 11 11 13 14
15 16 18 20 21 21 22 23 24 24 25 25 25 25 24 24 24 25 25 24 23 21 20 19 19 18 18 17 18 19 19 20 20 20 19 18 17 16 14 14 13 13 14
20 20 21 24 26 27 27 28 29 29 29 30 30 30 29 29 28 27 28 28 28 27 25 24 23 22 22 20 19 19 20 20 20 21 22 22 21 19 17 17 16 16 16
26 25 24 26 29 31 32 32 33 33 34 34 35 35 34 33 33 32 30 30 31 31 30 28 27 26 26 25 23 22 21 21 22 22 24 25 25 24 22 21 20 20 19
31 32 31 32 34 35 36 37 37 37 37 37 37 37 37 35 35 35 35 34 33 33 32 31 31 30 29 29 29 28 26 25 25 25 26 27 28 28 27 25 24 23 23
37 38 38 38 38 39 40 41 40 40 39 37 36 36 36 36 37 37 37 36 36 35 34 33 33 32 32 32 32 33 32 30 29 29 29 30 31 32 32 30 28 27 26
41 40 40 40 40 40 40 41 41 41 40 38 37 36 36 36 37 37 39 38 38 37 35 34 34 34 35 35 35 36 36 34 33 32 32 33 34 35 35 34 33 31 30
40 39 39 39 39 39 39 39 39 39 38 38 37 37 37 38 38 39 39 40 39 37 37 36 36 37 37 38 38 38 38 37 36 36 35 37 38 38 38 37 37 35 32
37 38 38 38 38 38 38 37 37 37 37 37 37 37 38 39 40 41 41 42 42 42 41 40 39 39 39 40 41 40 39 39 38 37 37 38 39 40 40 40 39 38 35
34 36 38 38 39 40 40 39 39 38 38 38 38 39 40 41 42 43 42 43 43 43 42 42 41 40 40 41 42 41 40 39 38 37 38 39 40 40 41 41 41 40 37
33 35 36 36 38 39 40 40 40 39 38 38 39 39 40 41 42 42 42 41 41 41 41 40 40 41 40 41 42 42 40 39 39 39 39 41 40 39 41 41 41 40 38
33 33 33 34 35 36 37 38 39 38 37 36 36 36 37 38 38 38 39 39 38 39 38 38 39 39 39 39 41 42 42 40 39 38 39 40 39 38 39 39 39 40 38
32 32 33 34 35 37 37 38 38 38 38 37 36 35 35 36 36 37 38 38 38 39 40 39 40 40 41 40 40 42 43 42 41 38 37 39 39 37 35 36 38 38 37
32 33 34 36 38 39 40 39 39 40 40 40 39 38 37 37 37 38 39 40 41 41 42 43 43 43 43 42 42 42 43 43 42 40 37 37 37 35 34 34 36 37 36
33 34 35 37 39 41 42 42 42 42 42 42 41 40 39 39 39 39 40 40 42 43 44 45 45 46 45 45 44 44 44 43 41 40 37 36 36 35 33 33 34 35 35
Wind_Direction
91 78 65 51 39 33 30 27 27 30 31 29 24 20 18 18 21 24 24 22 19 18 19 21 21 19 17 16 20 30 38 40 41 41 43 49 58 66 72 77 83 86 81
74 65 58 48 36 31 28 28 30 33 33 30 24 19 16 16 19 21 19 17 15 14 15 18 20 20 19 16 12 15 26 32 31 32 35 39 47 54 61 64 68 74 74
62 49 45 39 32 29 28 27 28 28 28 24 18 14 12 12 13 14 12 12 12 11 11 11 12 14 14 15 13 8 10 21 24 22 24 30 35 40 47 52 53 53 51
30 21 17 14 14 15 14 12 12 11 11 8 5 5 4 4 4 2 1 3 6 7 7 7 7 6 6 9 11 10 5 4 8 8 7 15 23 26 32 39 43 46 46
7 357 355 353 352 350 349 350 348 344 343 344 347 350 353 353 352 350 349 352 356 359 360 1 2 1 1 2 5 9 8 359 351 346 342 345 357 6 10 16 22 32 38
354 346 344 341 340 338 335 333 330 327 325 328 333 336 338 340 340 339 339 341 344 346 347 349 352 353 354 355 356 0 5 4 351 335 321 315 323 330 326 334 341 0 19
333 327 325 323 325 326 326 324 324 323 323 324 327 329 331 333 333 333 331 331 331 331 332 334 337 340 343 344 345 348 354 359 359 343 314 298 299 304 295 294 295 303 334
319 314 312 311 314 317 321 322 323 324 324 325 326 328 331 333 334 333 331 328 325 322 322 323 324 325 327 330 332 334 340 346 351 352 332 298 289 287 284 283 282 282 288
303 305 306 307 309 312 316 320 323 324 325 324 325 327 329 332 335 335 334 331 328 326 324 322 321 320 319 317 317 319 323 329 335 341 341 325 301 287 281 279 278 279 279
302 301 301 302 303 303 306 310 314 316 318 318 319 320 320 321 324 327 330 329 327 327 327 326 326 325 321 316 310 306 307 311 318 325 331 333 326 306 287 279 276 276 276
306 302 301 300 299 298 298 301 303 304 306 306 307 308 308 307 309 313 315 317 315 314 313 314 317 319 319 316 311 304 298 296 300 307 314 321 324 320 308 290 280 276 274
302 301 298 296 295 294 297 298 299 299 300 300 299 301 301 300 299 301 302 302 303 303 303 303 304 308 311 309 306 304 299 292 288 289 296 303 309 313 316 310 296 283 276
292 292 294 295 294 294 295 296 297 297 296 297 297 298 298 297 296 296 296 295 295 294 294 293 292 294 299 299 297 296 296 290 282 278 281 286 293 303 308 308 302 293 285
291 289 290 292 293 292 292 292 292 292 293 294 295 295 294 293 292 290 291 292 292 290 288 286 285 285 287 288 290 289 287 287 284 277 275 276 280 286 290 294 295 293 290
290 287 286 286 285 286 286 287 287 288 289 290 290 290 290 289 288 286 284 284 285 284 284 284 283 283 284 286 287 287 285 281 279 275 272 270 270 271 274 279 284 288 289
291 288 286 284 283 283 283 283 283 283 284 285 286 287 287 286 284 283 282 280 279 278 279 280 280 281 282 283 285 285 282 276 270 268 267 265 264 264 266 270 274 280 284
294 292 291 289 287 286 286 285 284 283 283 282 281 281 280 279 278 276 275 274 274 274 274 276 277 279 280 280 282 282 281 276 269 263 260 260 260 260 262 264 267 271 277
295 293 291 289 287 287 286 285 285 284 284 282 280 278 276 275 275 276 275 273 272 272 273 275 275 276 278 279 281 282 282 279 273 266 260 257 257 257 258 260 262 265 270
294 292 289 286 285 285 285 284 284 283 283 281 280 278 277 276 276 277 279 278 280 279 279 280 279 277 278 280 281 282 282 280 277 270 265 261 257 255 256 257 259 261 265
294 293 291 287 285 283 282 281 281 280 280 280 279 278 276 276 276 276 277 278 280 282 282 282 282 280 280 280 281 282 282 279 279 276 271 266 260 256 254 254 255 257 260
293 293 291 288 286 285 284 283 281 279 278 278 277 276 276 276 276 276 276 276 277 279 279 281 282 281 281 280 281 282 282 280 280 278 273 269 265 260 256 255 254 254 255
295 292 290 288 287 286 285 285 283 282 280 279 278 277 277 277 277 278 277 276 276 277 277 278 279 280 281 281 281 281 282 281 279 277 273 271 267 263 257 254 251 250 250
295 292 291 290 288 288 287 287 286 286 284 282 280 279 279 280 279 279 279 279 278 278 278 279 279 280 281 281 282 282 282 280 278 275 275 273 268 262 256 251 248 247 246
295 294 294 294 292 291 289 288 287 287 287 286 285 283 283 284 284 284 284 283 283 282 282 282 282 282 282 282 281 281 281 281 278 274 271 270 266 260 254 248 245 244 245
299 299 298 297 295 293 291 288 287 285 285 285 285 285 284 284 285 285 284 284 284 283 283 283 283 283 283 282 280 280 280 279 276 274 271 268 264 258 251 245 243 243 244
306 306 305 302 299 297 294 291 288 285 283 283 282 282 282 282 282 283 283 283 283 283 282 281 281 282 282 280 279 279 278 276 273 271 270 267 262 256 249 244 242 242 242
Height
5930 5929 5929 5930 5930 5930 5930 5930 5930 5930 5930 5929 5928 5927 5925 5924 5922 5921 5920 5918 5917 5915 5913 5911 5909 5907 5906 5904 5903 5901 5901 5900 5899 5899 5897 5896 5895 5894 5894 5894 5894 5894 5893
5932 5931 5932 5931 5932 5932 5932 5931 5931 5931 5930 5930 5929 5928 5927 5925 5924 5922 5921 5919 5918 5916 5914 5913 5911 5909 5907 5905 5903 5902 5901 5900 5900 5899 5897 5896 5895 5894 5894 5894 5894 5894 5894
5933 5933 5933 5934 5934 5933 5933 5933 5932 5931 5931 5930 5929 5929 5928 5926 5925 5923 5922 5920 5919 5917 5915 5914 5912 5910 5908 5906 5904 5903 5901 5900 5899 5898 5897 5897 5896 5895 5894 5894 5894 5893 5894
5935 5935 5935 5935 5935 5935 5934 5934 5933 5932 5931 5930 5930 5929 5928 5926 5925 5924 5922 5921 5919 5918 5916 5914 5912 5911 5909 5907 5905 5904 5902 5901 5900 5898 5897 5897 5896 5896 5895 5894 5894 5894 5894
5936 5936 5936 5936 5935 5935 5935 5934 5933 5932 5931 5930 5929 5929 5928 5926 5925 5924 5923 5921 5920 5918 5917 5915 5913 5911 5909 5908 5906 5904 5903 5901 5900 5899 5897 5897 5896 5896 5895 5894 5894 5894 5893
5936 5936 5936 5936 5935 5935 5934 5934 5933 5932 5931 5930 5929 5929 5928 5926 5925 5923 5922 5921 5920 5918 5917 5915 5913 5912 5910 5908 5906 5905 5903 5901 5900 5899 5897 5896 5896 5895 5895 5894 5894 5894 5893
5935 5935 5935 5935 5935 5934 5934 5933 5932 5932 5931 5930 5929 5928 5927 5926 5925 5923 5922 5921 5919 5918 5916 5915 5913 5911 5910 5908 5907 5905 5904 5902 5900 5899 5898 5896 5895 5895 5894 5893 5893 5893 5892
5935 5934 5934 5934 5933 5933 5932 5932 5931 5930 5930 5929 5928 5927 5926 5925 5924 5922 5921 5920 5918 5917 5915 5914 5912 5910 5909 5907 5906 5905 5904 5902 5900 5898 5897 5896 5895 5894 5894 5893 5892 5891 5891
5934 5933 5933 5932 5932 5931 5930 5930 5929 5929 5928 5927 5926 5925 5924 5923 5922 5920 5919 5918 5916 5915 5913 5912 5910 5908 5907 5906 5904 5903 5903 5902 5900 5898 5896 5895 5894 5893 5893 5892 5891 5890 5889
5933 5932 5931 5931 5930 5929 5928 5927 5927 5926 5925 5924 5924 5923 5922 5921 5919 5918 5916 5915 5913 5912 5910 5909 5907 5906 5904 5903 5902 5901 5900 5899 5899 5897 5895 5894 5892 5891 5891 5890 5890 5889 5888
5933 5931 5930 5929 5928 5927 5926 5925 5924 5924 5923 5922 5921 5920 5919 5917 5916 5914 5913 5911 5910 5908 5906 5905 5903 5902 5901 5899 5898 5897 5897 5896 5896 5895 5894 5893 5891 5890 5889 5888 5888 5887 5886
5933 5931 5929 5927 5926 5925 5924 5923 5922 5921 5920 5919 5918 5917 5915 5914 5912 5911 5909 5907 5906 5904 5902 5900 5899 5897 5896 5895 5894 5893 5892 5892 5892 5892 5891 5890 5889 5888 5887 5886 5885 5885 5883
5931 5929 5927 5924 5923 5922 5921 5919 5918 5917 5916 5915 5913 5912 5911 5909 5908 5906 5904 5902 5900 5899 5898 5896 5894 5892 5891 5890 5889 5888 5888 5887 5887 5887 5887 5887 5886 5885 5884 5884 5883 5883 5881
5925 5925 5923 5921 5919 5917 5916 5914 5913 5911 5910 5909 5908 5907 5905 5903 5902 5900 5898 5896 5894 5893 5892 5890 5889 5887 5886 5885 5884 5883 5882 5881 5881 5881 5882 5882 5881 5881 5881 5881 5881 5880 5879
5918 5919 5919 5917 5914 5912 5910 5909 5907 5905 5904 5902 5900 5899 5897 5895 5894 5892 5891 5890 5888 5886 5885 5884 5882 5881 5880 5879 5878 5877 5876 5876 5875 5875 5875 5876 5876 5877 5877 5876 5876 5876 5875
5909 5910 5910 5909 5907 5904 5903 5901 5900 5899 5897 5895 5893 5890 5888 5887 5885 5883 5882 5881 5880 5878 5877 5876 5875 5874 5873 5872 5871 5870 5870 5870 5869 5869 5869 5869 5869 5870 5871 5871 5871 5871 5870
5900 5899 5898 5897 5896 5893 5891 5890 5889 5889 5888 5886 5885 5882 5880 5878 5876 5874 5871 5870 5869 5868 5867 5867 5866 5865 5865 5864 5863 5862 5862 5861 5862 5861 5861 5861 5862 5862 5863 5864 5865 5864 5864
5892 5891 5889 5887 5885 5883 5881 5879 5878 5877 5876 5875 5874 5872 5871 5868 5866 5864 5861 5858 5856 5855 5855 5856 5856 5855 5855 5854 5854 5853 5852 5852 5852 5852 5852 5852 5853 5854 5855 5856 5857 5857 5858
5885 5883 5881 5878 5876 5874 5872 5870 5868 5867 5865 5864 5862 5861 5860 5858 5856 5855 5853 5849 5845 5844 5843 5844 5845 5845 5845 5844 5843 5842 5842 5842 5841 5842 5842 5842 5843 5844 5845 5847 5848 5849 5850
5878 5875 5872 5869 5867 5865 5863 5862 5860 5858 5856 5855 5853 5851 5849 5847 5846 5845 5844 5841 5839 5837 5835 5835 5835 5835 5834 5833 5832 5832 5832 5831 5831 5832 5832 5832 5832 5833 5835 5836 5838 5840 5842
5873 5869 5865 5861 5858 5855 5853 5852 5851 5849 5847 5846 5844 5842 5839 5837 5835 5834 5833 5832 5830 5828 5826 5826 5825 5824 5824 5823 5822 5822 5822 5822 5822 5822 5821 5821 5821 5822 5824 5825 5828 5831 5833
5866 5862 5858 5854 5850 5847 5844 5842 5840 5839 5837 5836 5834 5832 5829 5827 5825 5823 5822 5821 5820 5818 5817 5816 5815 5814 5814 5813 5811 5810 5811 5813 5812 5811 5810 5810 5810 5811 5812 5814 5817 5821 5824
5858 5855 5851 5847 5843 5839 5836 5833 5830 5828 5827 5825 5824 5822 5820 5817 5815 5813 5812 5810 5809 5808 5807 5807 5806 5804 5804 5803 5801 5800 5799 5801 5802 5802 5801 5799 5799 5800 5802 5804 5807 5810 5814
5851 5847 5842 5838 5834 5831 5828 5825 5822 5819 5817 5815 5813 5812 5810 5808 5806 5804 5802 5800 5799 5797 5796 5796 5795 5794 5793 5793 5792 5790 5789 5789 5789 5791 5791 5789 5789 5790 5791 5794 5797 5801 5805
5842 5838 5834 5829 5825 5822 5819 5816 5813 5811 5808 5806 5804 5802 5801 5799 5796 5794 5792 5791 5789 5788 5786 5785 5784 5783 5782 5782 5781 5780 5778 5778 5778 5778 5780 5781 5780 5781 5782 5785 5788 5792 5796
5834 5829 5825 5821 5817 5813 5809 5806 5803 5801 5798 5796 5794 5792 5791 5789 5787 5785 5783 5781 5779 5778 5776 5774 5773 5772 5771 5770 5769 5768 5767 5767 5767 5768 5769 5770 5770 5771 5774 5776 5779 5783 5786